Location: ?????
(32.7281°N, 34.9563°E)
Time: 01:50:09
(UTC+00:00)

H-2A R/B - Pass Details

Date: 29 October 2020
Orbit: 733 x 837 km, 98.2° (Epoch: 25 November)

Event Time Altitude Azimuth Distance (km) Brightness Sun altitude
Exits shadow 16:15:51 19° 131° (SE) 1,888 3.6 -18.2°
Maximum altitude 16:19:18 40° 72° (ENE) 1,209 2.5 -18.9°
Drops below altitude 10° 16:24:21 10° 4° (N) 2,454 4.5 -20.0°
Sets 16:26:51 0° 357° (N) 3,392 5.3 -20.5°
